Regional Weather Roundup
Issued by NWS Cleveland, OH

Home | Current Version | Previous Version | Text Only | Print | Product List | Glossary Off
Versions: 1 2 3 4 5 6 7 8 9 10 11 12 13 14 15 16 17 18 19 20 21 22 23 24 25 26 27 28 29 30 31 32 33 34 35 36 37 38 39 40 41 42 43 44 45 46 47 48 49 50

000
ASUS41 KCLE 212210
RWRCLE
OHIO REGIONAL WEATHER ROUNDUP
NATIONAL WEATHER SERVICE CLEVELAND, OH
600 PM EDT TUE OCT 21 2014

NOTE: "FAIR" INDICATES FEW OR NO CLOUDS BELOW 12,000 FEET WITH NO
SIGNIFICANT WEATHER AND/OR OBSTRUCTIONS TO VISIBILITY.

OHZ001>008-015>018-024>027-034-035-043-044-212300-
   NORTHWEST OHIO

CITY           SKY/WX    TMP DP  RH WIND       PRES   REMARKS
DEFIANCE       CLOUDY    49  37  63 N10       30.14R
FINDLAY        CLOUDY    47  38  71 N10       30.10R
TOLEDO EXPRESS CLOUDY    46  37  71 N13       30.13R
TOLEDO EXEC    CLOUDY    47  37  68 NW12      30.12R
LIMA           CLOUDY    48  40  73 N9        30.11R
$$

OHZ009>014-019>023-028>033-038-089-212300-
   NORTHEAST OHIO

CITY           SKY/WX    TMP DP  RH WIND       PRES   REMARKS
CLE-HOPKINS    LGT RAIN  47  43  86 NW12      30.05R
CLE-LAKEFRONT  CLOUDY    50  45  83 N24G31    30.01R
CUY CO. ARPT   LGT RAIN  50  48  93 N16G23    30.01R
LORAIN-ELYRIA  LGT RAIN  45  43  93 N17G26    30.06R FOG
ASHTABULA      RAIN      48  47  96 NW7       29.98R FOG
AKRON-CANTON   LGT RAIN  47  43  86 NW12G20   30.00R FOG
WOOSTER        LGT RAIN  47  43  86 NW12      30.04R
MANSFIELD      CLOUDY    45  41  86 NW14      30.05R
YOUNGSTOWN     LGT RAIN  47  45  93 NW7       29.97R FOG
$$

OHZ042-051>053-060>062-070>072-077>081-212300-
  SOUTHWEST OHIO

CITY           SKY/WX    TMP DP  RH WIND       PRES   REMARKS
CINC-COVINGTON CLOUDY    54  40  59 N8        30.09R
CINC-LUNKEN    CLOUDY    54  41  61 N9        30.11R
HAMILTON       CLOUDY    53  42  66 N7        30.11R
DAYTON         CLOUDY    50  43  77 N9        30.10R
WRIGHT-PAT AFB CLOUDY    50  44  81 N9        30.09R
DAYTON GENERAL LGT RAIN  49  46  90 N12       30.09R FOG
WILMINGTON     CLOUDY    48  43  82 N10       30.08R
$$

OHZ036-037-039>041-045>050-054>059-063>069-073>076-082>088-212300-
  CENTRAL AND SOUTHEAST OHIO

CITY           SKY/WX    TMP DP  RH WIND       PRES   REMARKS
COLUMBUS       CLOUDY    48  40  73 N12       30.06R
OSU AIRPORT    CLOUDY    48  41  76 N10       30.07R
BOLTON FIELD   CLOUDY    48  41  76 N16G22    30.08R
RICKENBACK AFB CLOUDY    48  42  77 N12       30.07R
NEWARK         CLOUDY    49  38  65 N10       30.05R
MARION         CLOUDY    47  39  74 N12       30.08R
LANCASTER      CLOUDY    48  41  76 N13G21    30.07R
ZANESVILLE     CLOUDY    48  40  73 NW9       30.03R
NEW PHILLY     CLOUDY    49  43  80 NW12G18   30.02R
$$



USA.gov is the U.S. government's official web portal to all federal, state and local government web resources and services.